Total_Precipitation_Accumulation
0.16 0.05 0.00 0.00 0.00 0.00 0.00 0.00 0.00 0.00 0.00 0.00 0.00 0.00 0.00 0.00 0.00 0.03 0.01 0.01 0.01 0.00 0.00 0.00 0.00 0.01 0.02 0.00 0.00 0.02 0.01 0.03 0.01 0.01 0.02 0.03 0.01 0.01 0.05 0.07 0.03 0.01 0.01 0.04 0.04 0.01 0.05 0.01 0.01 0.06 0.04 0.05 0.03 0.02 0.02 0.03 0.03 0.04 0.03 0.02 0.03 0.03 0.03 0.08 0.13 0.02 0.02 0.01 0.02 0.01 0.02 0.01 0.02 0.01 0.01 0.01 0.00 0.01 0.00 0.00 0.00 0.01 0.00 0.00 0.02
0.40 0.43 0.11 0.01 0.00 0.00 0.00 0.00 0.00 0.00 0.00 0.00 0.00 0.00 0.00 0.01 0.01 0.01 0.02 0.01 0.04 0.06 0.04 0.00 0.00 0.00 0.00 0.00 0.02 0.03 0.01 0.01 0.00 0.01 0.02 0.01 0.01 0.01 0.01 0.01 0.02 0.00 0.00 0.00 0.00 0.01 0.04 0.01 0.01 0.01 0.03 0.03 0.03 0.03 0.03 0.02 0.01 0.01 0.03 0.02 0.04 0.03 0.05 0.12 0.10 0.04 0.02 0.01 0.01 0.01 0.01 0.02 0.03 0.01 0.01 0.02 0.01 0.00 0.01 0.00 0.00 0.00 0.00 0.00 0.01
0.42 0.21 0.22 0.06 0.00 0.02 0.00 0.00 0.01 0.00 0.00 0.00 0.00 0.01 0.01 0.02 0.01 0.01 0.01 0.02 0.02 0.01 0.01 0.05 0.01 0.00 0.01 0.03 0.01 0.01 0.01 0.01 0.00 0.00 0.01 0.01 0.01 0.01 0.02 0.01 0.01 0.01 0.00 0.00 0.00 0.00 0.00 0.00 0.00 0.01 0.01 0.02 0.01 0.01 0.01 0.00 0.01 0.02 0.01 0.01 0.04 0.02 0.02 0.07 0.11 0.08 0.03 0.02 0.00 0.01 0.03 0.03 0.02 0.02 0.01 0.01 0.00 0.01 0.00 0.01 0.01 0.01 0.00 0.01 0.01
0.71 0.74 0.88 0.83 0.16 0.08 0.01 0.01 0.00 0.00 0.00 0.00 0.00 0.02 0.01 0.00 0.01 0.02 0.01 0.01 0.04 0.01 0.03 0.10 0.06 0.00 0.00 0.03 0.01 0.01 0.00 0.00 0.01 0.00 0.00 0.00 0.00 0.01 0.00 0.00 0.00 0.00 0.00 0.00 0.00 0.00 0.00 0.00 0.00 0.00 0.00 0.01 0.01 0.01 0.01 0.00 0.01 0.01 0.01 0.01 0.02 0.00 0.01 0.06 0.02 0.08 0.05 0.06 0.04 0.01 0.01 0.03 0.02 0.01 0.01 0.00 0.00 0.00 0.01 0.01 0.01 0.01 0.02 0.02 0.02
1.63 0.72 0.68 0.52 0.62 0.17 0.03 0.01 0.04 0.05 0.01 0.00 0.01 0.03 0.03 0.00 0.01 0.06 0.01 0.03 0.02 0.02 0.01 0.03 0.02 0.02 0.03 0.02 0.01 0.00 0.00 0.00 0.01 0.01 0.01 0.00 0.01 0.00 0.00 0.00 0.00 0.00 0.00 0.00 0.00 0.00 0.00 0.00 0.00 0.00 0.01 0.01 0.01 0.01 0.00 0.01 0.02 0.02 0.02 0.04 0.04 0.02 0.02 0.02 0.01 0.02 0.07 0.13 0.04 0.02 0.03 0.02 0.02 0.01 0.01 0.02 0.02 0.02 0.01 0.01 0.02 0.02 0.01 0.02 0.01
0.74 0.29 0.89 0.85 0.92 0.69 0.20 0.14 0.23 0.13 0.03 0.03 0.09 0.03 0.01 0.01 0.02 0.05 0.01 0.05 0.00 0.02 0.01 0.01 0.00 0.00 0.00 0.02 0.00 0.02 0.00 0.00 0.00 0.00 0.00 0.01 0.00 0.01 0.01 0.02 0.01 0.00 0.00 0.00 0.00 0.00 0.00 0.00 0.01 0.01 0.01 0.01 0.01 0.00 0.00 0.00 0.00 0.01 0.02 0.04 0.02 0.05 0.06 0.02 0.03 0.07 0.10 0.07 0.09 0.08 0.03 0.03 0.05 0.01 0.01 0.01 0.03 0.02 0.02 0.01 0.01 0.02 0.02 0.02 0.02
1.60 1.07 1.18 0.76 0.37 0.26 0.25 0.63 0.50 0.15 0.18 0.10 0.16 0.15 0.09 0.02 0.02 0.02 0.02 0.03 0.01 0.01 0.02 0.01 0.00 0.00 0.01 0.01 0.03 0.02 0.00 0.00 0.00 0.00 0.00 0.00 0.00 0.00 0.01 0.00 0.02 0.01 0.01 0.00 0.00 0.00 0.01 0.03 0.03 0.02 0.02 0.01 0.01 0.00 0.00 0.00 0.01 0.01 0.02 0.01 0.01 0.02 0.04 0.06 0.04 0.06 0.06 0.07 0.07 0.06 0.03 0.02 0.04 0.05 0.02 0.01 0.02 0.02 0.02 0.03 0.04 0.04 0.02 0.03 0.02
1.11 1.47 1.29 0.98 0.45 0.34 0.27 0.50 0.62 0.55 0.47 0.42 0.21 0.16 0.10 0.04 0.00 0.02 0.02 0.01 0.02 0.02 0.01 0.01 0.01 0.03 0.02 0.01 0.01 0.01 0.01 0.00 0.01 0.01 0.00 0.01 0.01 0.00 0.00 0.00 0.00 0.00 0.01 0.03 0.03 0.02 0.05 0.03 0.02 0.02 0.02 0.03 0.03 0.01 0.00 0.01 0.01 0.01 0.01 0.04 0.03 0.04 0.04 0.04 0.07 0.06 0.05 0.04 0.06 0.07 0.05 0.03 0.02 0.02 0.03 0.03 0.03 0.02 0.03 0.08 0.11 0.04 0.02 0.02 0.02
1.46 1.87 1.76 1.80 1.49 0.98 1.07 1.30 1.22 1.13 1.24 1.33 1.26 0.51 0.11 0.05 0.01 0.01 0.01 0.02 0.04 0.03 0.04 0.03 0.00 0.00 0.03 0.04 0.02 0.01 0.02 0.03 0.01 0.05 0.01 0.00 0.01 0.01 0.00 0.03 0.01 0.01 0.03 0.03 0.04 0.04 0.03 0.01 0.01 0.01 0.00 0.01 0.03 0.01 0.02 0.00 0.03 0.01 0.00 0.01 0.01 0.02 0.05 0.04 0.06 0.06 0.07 0.07 0.06 0.05 0.09 0.03 0.02 0.02 0.03 0.04 0.04 0.07 0.18 0.07 0.06 0.03 0.03 0.04 0.03
1.54 1.50 1.21 1.81 2.57 2.34 1.88 1.86 1.38 1.65 1.55 2.39 2.25 1.26 0.28 0.11 0.04 0.06 0.10 0.08 0.05 0.02 0.01 0.01 0.02 0.02 0.02 0.04 0.05 0.04 0.03 0.03 0.11 0.06 0.01 0.07 0.06 0.03 0.04 0.03 0.04 0.05 0.07 0.06 0.04 0.03 0.03 0.01 0.04 0.03 0.02 0.03 0.03 0.03 0.03 0.01 0.01 0.00 0.00 0.01 0.02 0.02 0.03 0.07 0.07 0.07 0.09 0.09 0.15 0.05 0.07 0.06 0.04 0.04 0.04 0.06 0.07 0.08 0.06 0.05 0.09 0.06 0.04 0.09 0.06
1.04 1.23 1.66 1.87 1.93 1.59 1.76 2.19 1.74 2.02 2.10 3.01 2.12 1.63 0.42 0.24 0.17 0.03 0.04 0.03 0.03 0.02 0.02 0.02 0.05 0.04 0.04 0.07 0.07 0.04 0.04 0.02 0.02 0.02 0.02 0.03 0.06 0.10 0.06 0.05 0.10 0.06 0.05 0.06 0.06 0.09 0.03 0.10 0.17 0.06 0.04 0.05 0.17 0.16 0.07 0.16 0.08 0.09 0.09 0.08 0.08 0.06 0.05 0.04 0.03 0.03 0.08 0.05 0.06 0.06 0.06 0.07 0.02 0.03 0.04 0.03 0.06 0.08 0.11 0.06 0.11 0.17 0.18 0.18 0.28
1.78 1.40 0.85 0.92 1.45 1.38 1.21 2.11 2.19 1.76 2.64 4.19 3.59 2.06 0.99 0.41 0.13 0.09 0.07 0.04 0.08 0.08 0.04 0.05 0.05 0.07 0.08 0.07 0.07 0.14 0.14 0.05 0.04 0.06 0.07 0.12 0.07 0.05 0.07 0.05 0.04 0.03 0.07 0.10 0.12 0.14 0.26 0.08 0.05 0.21 0.06 0.10 0.25 0.43 0.26 0.12 0.11 0.12 0.11 0.09 0.06 0.04 0.03 0.05 0.09 0.12 0.03 0.04 0.05 0.03 0.05 0.08 0.06 0.04 0.05 0.09 0.29 0.59 0.42 0.35 0.46 0.47 0.38 0.34 0.25
1.68 1.59 1.70 1.24 1.62 1.61 2.03 2.40 1.98 1.60 2.10 3.92 2.95 1.97 1.46 0.94 0.43 0.37 0.29 0.23 0.27 0.10 0.08 0.08 0.07 0.10 0.13 0.15 0.18 0.13 0.08 0.11 0.09 0.11 0.10 0.08 0.06 0.07 0.04 0.05 0.06 0.07 0.22 0.31 0.33 0.35 0.30 0.17 0.43 0.24 0.25 0.44 0.56 0.21 0.21 0.23 0.19 0.13 0.14 0.14 0.11 0.10 0.09 0.07 0.06 0.05 0.08 0.08 0.14 0.07 0.05 0.06 0.10 0.12 0.18 0.59 0.91 1.33 1.20 1.39 0.57 0.48 0.44 0.48 0.35
2.03 2.02 2.04 2.32 2.68 2.85 2.62 2.42 2.05 2.65 3.58 3.52 2.42 2.08 1.64 1.20 1.47 1.00 0.60 0.66 0.55 0.35 0.16 0.17 0.16 0.18 0.21 0.16 0.15 0.18 0.19 0.17 0.12 0.08 0.06 0.07 0.08 0.03 0.07 0.05 0.05 0.14 0.14 0.09 0.15 0.12 0.11 0.51 0.53 0.43 0.53 0.38 0.49 0.17 0.20 0.33 0.31 0.41 0.38 0.28 0.20 0.15 0.10 0.07 0.05 0.03 0.11 0.55 0.13 0.09 0.05 0.04 0.10 0.16 0.24 0.48 0.67 1.25 1.86 1.81 0.69 0.27 0.42 0.43 0.23
2.19 2.15 1.89 2.06 2.28 2.42 2.33 2.40 2.59 3.88 4.07 3.60 2.94 2.62 2.35 1.56 0.92 0.92 1.40 1.07 0.37 0.24 0.30 0.28 0.22 0.33 0.27 0.20 0.29 0.37 0.20 0.11 0.12 0.12 0.11 0.12 0.10 0.09 0.11 0.21 0.11 0.07 0.13 0.17 0.09 0.11 0.21 0.27 0.48 0.48 0.38 0.33 0.43 0.27 0.32 0.47 0.43 0.20 0.17 0.13 0.15 0.12 0.15 0.09 0.09 0.14 0.10 0.11 0.18 0.09 0.12 0.06 0.07 0.06 0.17 0.17 0.26 0.59 2.34 1.61 0.67 0.67 0.89 0.57 0.50
1.49 1.90 1.73 2.34 2.34 2.32 2.40 2.48 3.07 3.79 4.09 3.95 3.77 3.55 2.97 2.00 1.74 1.18 1.38 1.21 0.73 0.58 0.72 0.71 0.51 0.36 0.34 0.26 0.20 0.12 0.11 0.09 0.46 0.45 0.08 0.02 0.06 0.25 0.17 0.08 0.11 0.07 0.07 0.11 0.12 0.25 0.28 0.33 0.44 0.40 0.24 0.49 0.26 0.13 0.13 0.14 0.19 0.24 0.09 0.12 0.08 0.08 0.06 0.03 0.02 0.02 0.05 0.05 0.06 0.02 0.01 0.02 0.00 0.05 0.11 0.13 0.49 1.82 3.16 1.68 1.21 1.15 1.79 0.89 0.32
2.27 1.97 2.69 1.94 1.62 1.90 2.51 2.71 2.77 2.95 3.31 3.25 3.51 3.42 3.07 2.46 2.06 2.15 1.45 1.63 1.76 0.92 0.69 0.57 0.62 0.46 0.30 0.21 0.13 0.13 0.23 0.10 0.05 0.11 0.50 0.10 0.04 0.11 0.11 0.08 0.16 0.11 0.09 0.11 0.34 0.26 0.18 0.14 0.15 0.32 0.26 0.25 0.15 0.08 0.08 0.06 0.07 0.11 0.11 0.05 0.03 0.03 0.01 0.04 0.02 0.01 0.02 0.01 0.02 0.00 0.00 0.00 0.00 0.01 0.04 0.05 0.27 1.29 3.58 2.01 1.20 2.26 2.43 1.11 0.15
1.21 1.22 1.59 1.25 1.03 1.31 1.63 1.29 1.53 2.28 2.65 2.84 2.65 2.80 2.38 2.06 1.99 2.30 2.47 2.69 1.84 1.35 1.29 0.69 0.48 0.41 0.55 0.37 0.46 0.23 0.22 0.09 0.03 0.03 0.06 0.12 0.13 0.17 0.14 0.16 0.17 0.23 0.26 0.35 0.35 0.31 0.22 0.18 0.17 0.32 0.37 0.34 0.13 0.08 0.08 0.07 0.03 0.03 0.04 0.10 0.16 0.09 0.05 0.03 0.05 0.03 0.01 0.00 0.03 0.03 0.00 0.00 0.68 0.66 0.44 0.06 0.42 1.27 3.37 1.48 1.40 2.39 3.28 2.47 0.78
0.77 1.22 1.37 0.91 1.30 1.40 1.24 0.97 0.92 1.09 1.57 2.21 2.61 2.46 2.56 2.34 2.34 2.30 1.99 1.78 1.88 1.43 1.32 1.42 0.92 0.85 0.74 0.66 0.40 0.82 0.40 0.13 0.08 0.08 0.09 0.11 0.13 0.23 0.21 0.25 0.28 0.31 0.63 0.50 0.28 0.44 0.63 0.25 0.24 0.26 0.21 0.17 0.14 0.11 0.10 0.08 0.08 0.06 0.07 0.08 0.16 0.02 0.06 0.05 0.03 0.02 0.04 0.15 0.07 0.15 0.15 0.93 1.46 1.45 1.28 0.36 1.55 2.07 2.45 1.87 1.55 2.55 3.02 2.20 1.91
0.68 0.55 0.77 1.31 1.13 1.85 1.20 0.89 0.96 0.92 1.37 1.61 2.17 2.53 3.23 2.97 2.69 2.23 1.97 1.69 2.08 2.50 1.84 1.08 0.76 0.71 0.66 0.60 0.34 0.49 0.58 0.49 0.18 0.10 0.17 0.14 0.59 0.77 0.44 0.45 0.38 0.35 0.67 0.61 0.39 0.44 0.73 0.63 0.28 0.19 0.13 0.11 0.10 0.07 0.05 0.03 0.02 0.01 0.06 0.08 0.09 0.05 0.14 0.01 0.09 0.02 0.04 0.03 0.03 0.18 0.32 0.71 1.10 1.00 0.63 0.65 0.63 0.87 0.76 0.40 0.41 0.93 1.37 1.77 2.07
1.16 1.51 1.35 0.83 0.93 2.03 1.48 1.07 1.27 1.59 1.50 1.86 1.89 2.01 2.68 2.66 2.57 1.85 1.60 1.77 2.59 2.09 1.49 1.59 1.26 1.25 1.07 1.30 1.04 0.67 0.69 1.21 0.99 0.46 0.48 0.44 0.63 0.86 1.46 0.63 0.59 0.48 0.54 0.33 0.46 0.60 1.00 0.89 0.82 0.29 0.09 0.04 0.05 0.04 0.02 0.01 0.00 0.01 0.02 0.10 0.03 0.01 0.04 0.01 0.00 0.02 0.02 0.04 0.05 0.04 0.12 0.23 0.32 0.31 0.45 0.28 0.16 0.26 0.37 0.21 0.13 0.27 0.83 0.86 1.24
0.55 0.23 1.02 1.87 2.11 2.67 1.99 2.11 1.21 1.04 1.05 1.12 0.89 0.77 1.42 1.57 1.47 1.28 1.43 1.03 0.92 0.98 1.12 1.59 1.63 1.69 1.32 1.22 1.12 1.21 0.80 0.60 0.65 0.73 0.86 1.12 1.04 0.85 1.20 0.91 0.37 0.43 0.91 0.68 0.51 0.42 0.87 1.14 0.56 0.34 0.10 0.02 0.02 0.01 0.02 0.01 0.01 0.02 0.02 0.01 0.01 0.01 0.01 0.01 0.02 0.03 0.06 0.04 0.09 0.15 0.09 0.14 0.11 0.37 0.35 0.39 0.18 0.16 0.22 0.42 0.48 0.28 0.19 0.29 0.72
0.16 0.12 0.73 1.00 1.89 2.33 1.94 1.38 0.91 0.58 0.49 0.49 0.32 0.50 0.77 0.76 0.69 0.40 0.43 0.62 0.79 0.96 0.90 0.75 0.96 0.95 0.83 0.67 0.69 0.76 0.83 0.79 0.72 1.41 1.42 1.06 1.13 0.97 0.68 0.85 0.56 0.58 0.44 0.26 0.38 0.47 0.81 0.67 0.21 0.24 0.02 0.02 0.02 0.02 0.02 0.02 0.02 0.03 0.01 0.01 0.01 0.01 0.02 0.03 0.03 0.05 0.04 0.05 0.06 0.15 0.11 0.14 0.23 0.41 1.13 0.79 0.20 0.20 0.25 0.23 0.26 0.38 0.26 0.23 0.47
0.66 0.66 0.41 0.61 0.69 1.37 1.39 1.12 1.17 1.34 0.94 0.65 0.65 0.75 0.82 0.74 0.47 0.75 0.47 0.56 0.51 0.66 1.04 0.89 0.75 0.31 0.38 0.43 0.43 0.41 0.63 0.79 1.04 1.69 1.44 1.11 1.01 0.96 0.92 0.91 0.82 0.54 0.43 0.52 0.80 0.71 0.36 0.37 0.24 0.03 0.02 0.02 0.03 0.02 0.02 0.01 0.01 0.01 0.02 0.01 0.01 0.03 0.08 0.05 0.06 0.08 0.10 0.07 0.13 0.24 0.24 0.21 0.37 0.66 1.23 1.20 0.26 0.32 0.28 0.26 0.32 0.28 0.33 0.42 0.95
0.12 0.10 0.17 0.26 0.31 0.73 0.61 0.76 0.98 1.05 0.97 1.09 1.43 1.21 1.17 1.06 0.57 0.50 0.55 0.57 0.61 0.60 0.53 0.83 0.79 0.67 0.72 1.21 0.90 0.61 1.08 1.08 1.02 0.82 0.96 1.01 1.08 1.12 0.57 0.27 0.09 0.09 0.20 0.45 0.33 0.22 0.11 0.09 0.07 0.05 0.05 0.06 0.05 0.04 0.03 0.03 0.05 0.02 0.02 0.02 0.02 0.31 0.07 0.08 0.17 0.32 0.36 0.16 0.11 0.11 0.12 0.13 0.27 0.62 1.06 0.88 0.33 0.22 0.27 0.28 0.23 0.29 0.41 0.93 1.30
0.23 0.44 0.52 0.49 0.42 0.20 0.20 0.38 0.38 0.44 0.58 0.50 0.49 0.49 0.55 0.55 0.76 0.46 0.65 0.87 0.96 1.19 1.25 1.50 1.08 0.85 0.80 0.99 0.81 0.81 0.84 0.95 1.38 1.30 1.40 1.59 1.10 0.52 0.22 0.14 0.09 0.10 0.05 0.06 0.05 0.08 0.07 0.08 0.09 0.09 0.07 0.05 0.04 0.05 0.05 0.06 0.03 0.03 0.03 0.15 0.90 0.50 0.76 0.52 0.19 0.21 0.12 0.09 0.07 0.06 0.04 0.09 0.11 0.87 1.46 0.89 0.23 0.22 0.37 0.47 0.39 0.54 1.10 1.28 1.35
0.59 0.40 0.12 0.16 0.20 0.25 0.16 0.17 0.11 0.09 0.20 0.37 0.85 1.01 1.30 1.07 0.97 1.08 0.77 0.87 0.70 0.60 0.55 0.64 0.72 0.45 0.48 0.46 0.62 0.68 0.98 1.39 0.97 1.36 1.62 1.23 0.82 0.59 0.83 0.72 0.43 0.23 0.15 0.10 0.11 0.08 0.08 0.08 0.11 0.11 0.13 0.13 0.11 0.10 0.08 0.07 0.09 0.12 0.36 0.19 0.14 0.21 0.22 0.50 0.22 0.12 0.06 0.06 0.06 0.06 0.07 0.14 0.55 1.00 1.47 0.63 0.35 0.43 0.41 0.40 0.36 0.80 1.10 1.28 0.79
0.38 0.39 0.42 0.42 0.15 0.40 0.38 0.32 0.48 0.55 0.78 0.79 0.79 0.66 0.61 0.59 0.66 0.45 0.45 0.36 0.31 0.24 0.19 0.15 0.16 0.17 0.24 0.45 0.69 0.87 1.20 1.35 1.83 1.40 1.62 0.52 0.64 0.64 0.49 0.42 0.55 0.42 0.25 0.28 0.18 0.14 0.20 0.08 0.12 0.12 0.11 0.08 0.08 0.10 0.39 0.35 0.34 0.31 0.22 0.10 0.11 0.10 0.11 0.19 0.23 0.21 0.12 0.09 0.09 0.10 0.20 0.46 1.04 1.36 1.03 0.75 0.50 0.41 0.39 0.46 0.59 1.00 1.13 1.10 0.73
1.07 1.17 1.24 1.40 1.44 1.19 1.28 1.09 0.91 0.49 0.34 0.44 0.39 0.54 0.46 0.46 0.42 0.41 0.17 0.19 0.12 0.20 0.17 0.18 0.19 0.25 0.52 0.85 0.75 0.62 0.58 1.14 1.59 0.47 0.66 0.54 0.50 0.39 0.44 0.49 0.61 0.41 0.33 0.48 0.89 0.54 0.15 0.13 0.12 0.11 0.29 0.84 1.15 0.64 0.34 0.30 0.35 0.28 0.11 0.08 0.08 0.13 0.27 0.26 0.08 0.09 0.12 0.20 0.18 0.18 0.42 1.08 1.21 1.32 1.17 0.64 0.42 0.61 0.51 0.68 0.95 0.94 0.51 0.45 0.54
1.10 1.14 1.15 1.12 1.10 1.01 0.98 0.66 0.53 0.48 0.32 0.24 0.31 0.12 0.06 0.04 0.08 0.09 0.29 0.12 0.20 0.31 0.53 1.10 1.27 1.47 1.54 1.54 1.24 1.21 1.20 0.94 0.76 0.23 0.23 0.39 0.62 1.07 1.04 0.88 0.76 0.93 0.70 0.69 0.56 0.46 0.38 0.48 0.58 0.94 1.63 1.39 0.52 0.52 0.47 0.36 0.43 0.17 0.08 0.07 0.07 0.39 0.16 0.12 0.11 0.08 0.09 0.14 0.24 0.42 0.61 1.14 1.12 0.75 0.71 0.36 0.32 0.25 0.31 0.47 0.65 0.48 0.51 0.68 0.43
1.02 0.79 1.09 0.86 0.67 0.61 0.72 0.83 0.83 0.56 0.46 0.17 0.12 0.24 0.09 0.03 0.58 1.06 1.47 1.11 0.67 0.78 0.97 1.09 0.88 0.54 0.44 0.23 0.14 0.17 0.08 0.18 0.35 0.72 1.12 1.05 1.34 1.82 1.52 1.30 1.01 0.63 0.35 0.40 0.44 0.33 0.61 0.85 1.36 1.38 0.99 0.77 0.59 0.75 0.68 0.38 0.20 0.17 0.19 1.28 1.80 0.73 0.22 0.28 0.32 0.26 0.16 0.15 0.35 1.06 1.31 0.77 0.36 0.24 0.26 0.16 0.24 0.21 0.26 0.37 0.44 0.22 0.27 0.32 0.54
1.89 1.16 1.13 1.15 1.01 0.84 0.57 0.97 0.95 0.69 0.64 0.96 0.51 1.34 0.84 0.67 0.51 0.99 0.54 0.71 0.93 0.80 0.19 0.31 0.30 0.49 0.52 0.70 0.63 0.81 0.98 1.28 1.22 1.27 1.13 0.84 1.81 1.89 1.90 1.45 1.10 0.51 0.54 0.45 0.53 0.76 1.26 1.23 1.14 0.93 0.50 0.36 0.35 0.28 0.15 0.12 0.23 0.34 0.96 1.51 0.97 0.75 1.20 1.25 1.01 0.36 0.23 0.18 1.15 1.01 0.28 0.24 0.30 0.30 0.18 0.10 0.30 0.65 0.87 1.14 0.75 0.47 0.44 0.35 0.42
1.22 1.28 0.77 0.91 1.26 1.35 1.24 1.10 0.91 0.66 0.73 0.45 0.61 0.93 0.95 0.53 0.35 0.26 0.28 0.12 0.31 0.40 0.39 0.21 0.52 0.72 0.30 0.20 0.13 0.27 0.35 0.53 0.25 0.25 0.30 0.14 0.15 0.23 1.01 1.68 1.78 1.77 0.98 0.66 0.75 1.02 1.06 1.10 0.97 0.63 0.26 0.36 0.17 0.24 0.29 0.55 0.82 1.01 0.65 0.94 1.13 1.68 2.49 2.22 0.60 0.41 0.29 0.44 0.73 0.31 0.18 0.26 0.38 0.31 0.18 0.49 1.65 1.26 0.99 0.70 0.56 0.42 0.37 0.49 0.49
1.09 0.97 1.66 1.96 1.47 1.42 1.12 1.04 1.50 1.59 1.41 0.96 0.59 0.43 0.74 0.89 0.71 0.36 0.26 0.17 0.27 0.26 0.44 0.99 0.93 0.70 1.24 0.94 0.90 0.85 0.63 0.69 0.55 0.30 0.10 0.14 0.23 0.30 0.20 0.28 0.86 1.02 1.63 2.48 2.14 1.70 1.53 1.25 0.94 0.51 0.35 0.41 0.33 0.45 0.84 1.28 1.25 1.35 1.12 0.59 0.70 1.64 3.16 1.55 1.55 1.23 0.96 1.10 1.23 0.64 0.59 0.43 0.53 0.37 0.32 0.51 1.40 0.88 0.47 0.38 0.33 0.36 0.41 0.46 0.40
1.35 1.74 1.79 2.25 2.05 1.86 2.38 2.60 2.20 2.17 2.23 2.19 1.96 1.49 0.94 0.74 0.79 0.81 0.77 0.64 0.55 0.27 0.44 0.36 0.95 0.87 0.58 1.15 1.52 1.37 1.42 1.22 1.06 0.84 0.49 0.22 0.25 0.35 0.59 0.78 0.88 1.88 2.04 1.68 2.16 2.39 2.16 1.88 1.58 1.31 0.61 0.61 0.53 0.71 1.42 1.28 1.55 1.01 0.85 1.29 0.92 2.02 2.08 1.92 1.60 1.90 1.63 1.49 1.09 1.10 1.04 0.91 0.93 0.79 0.59 1.11 1.12 1.11 0.53 0.45 0.49 0.46 0.55 0.57 0.97
1.04 0.84 1.06 1.14 1.43 1.27 1.14 1.34 1.56 2.20 2.67 2.66 2.18 2.06 1.85 1.73 1.11 0.90 1.37 1.73 1.10 1.00 1.04 1.04 0.99 1.17 1.34 0.76 0.47 0.54 0.70 1.03 1.50 1.51 1.39 1.34 1.13 0.89 1.62 1.57 1.58 1.49 2.00 1.51 1.78 1.63 0.67 0.57 0.56 0.99 1.21 1.52 1.82 1.81 1.92 1.54 0.79 1.03 2.39 1.62 1.19 1.11 0.94 1.30 1.79 3.23 1.96 1.23 1.50 1.70 1.68 1.30 1.37 0.90 0.92 1.18 1.22 1.21 0.93 0.89 0.67 0.50 0.80 0.85 0.68
0.34 0.58 1.10 0.94 1.24 1.27 1.27 1.36 1.79 1.96 1.92 1.64 1.69 2.85 3.16 2.51 2.07 2.02 1.93 1.52 2.05 1.83 1.06 1.02 1.08 1.09 0.99 1.32 1.62 1.44 0.99 0.70 0.68 0.87 1.13 1.51 1.83 1.77 2.44 2.35 2.12 2.15 2.00 0.60 1.01 1.20 1.03 0.80 0.80 1.03 1.36 2.23 1.65 1.09 0.90 0.74 1.09 1.36 1.27 1.90 1.75 1.29 1.66 1.75 3.17 3.12 2.15 2.17 2.25 2.60 3.37 2.55 1.60 1.30 1.29 1.13 1.01 0.88 1.04 1.12 1.23 0.91 0.83 0.77 1.11
0.76 1.16 1.00 0.92 1.45 1.69 2.11 1.97 1.81 2.21 2.21 1.93 1.27 1.09 1.12 2.17 2.64 1.98 1.74 2.01 1.79 1.97 1.81 1.74 1.22 1.43 1.75 1.44 0.79 1.08 1.72 1.30 1.35 1.27 1.86 2.63 2.56 1.81 1.73 2.32 2.18 2.50 2.46 0.98 1.50 1.44 1.23 1.23 0.95 1.10 1.92 1.99 1.37 1.37 1.84 2.18 2.20 2.48 2.85 1.88 2.04 1.50 1.69 2.08 3.88 2.78 2.82 2.87 1.87 2.34 2.63 1.66 1.31 1.17 1.07 1.03 0.85 1.20 0.96 0.73 0.81 0.85 1.27 1.52 0.95
0.26 0.67 1.59 1.34 1.01 1.35 1.58 1.42 1.58 1.50 1.37 1.41 1.23 1.09 0.95 1.02 1.14 1.78 2.60 2.45 2.20 2.13 2.24 2.13 1.85 1.69 1.34 1.18 1.71 1.67 1.09 1.45 1.84 1.73 1.46 1.36 1.62 1.74 1.29 1.18 1.20 1.20 1.93 1.63 2.02 1.63 1.48 1.42 1.28 1.39 1.70 2.21 1.76 1.99 2.97 2.61 2.64 3.17 3.17 2.08 1.95 1.94 1.93 2.62 3.28 2.32 1.87 1.39 1.52 1.39 1.10 1.00 1.42 1.49 2.14 2.57 1.67 1.24 0.97 0.82 1.04 2.15 2.63 1.17 1.13
1.55 1.41 1.34 1.11 1.25 1.30 1.03 0.68 0.68 0.90 0.86 0.82 0.66 0.65 0.72 0.75 0.73 0.83 1.12 1.37 1.96 2.80 2.22 2.13 2.66 1.90 1.52 1.40 1.23 1.60 1.80 1.14 0.97 1.35 2.22 2.56 1.39 0.95 1.31 1.09 0.77 0.96 2.65 1.11 1.11 1.20 1.19 0.92 1.03 1.66 1.26 1.14 1.94 2.01 2.66 2.93 2.87 2.57 2.27 2.04 2.39 2.17 2.76 2.77 1.65 2.07 1.93 1.85 2.39 2.26 1.64 1.13 1.03 1.27 2.08 1.91 1.23 1.37 1.88 1.99 2.99 2.69 1.80 1.63 1.42
1.41 1.32 0.95 0.34 0.36 0.37 0.68 0.56 0.54 0.51 0.55 0.62 0.46 0.48 0.49 0.56 0.54 0.61 0.74 0.94 1.19 1.28 1.65 1.93 2.55 2.90 2.62 2.29 2.06 2.72 3.55 4.37 3.40 1.39 1.96 1.89 2.05 2.01 1.48 1.29 1.70 1.63 2.05 2.43 2.06 1.15 1.22 1.26 0.95 0.84 0.94 1.35 1.64 1.96 2.06 1.90 2.98 2.97 2.04 2.75 2.21 1.55 1.49 1.58 1.84 1.63 1.67 1.65 2.02 2.36 2.32 2.75 2.97 2.51 1.88 0.97 1.13 1.78 1.95 1.97 2.01 1.72 1.88 1.79 1.82
1.73 1.12 0.96 1.23 1.37 1.67 2.08 0.94 0.76 0.70 0.78 0.78 0.79 0.82 0.98 0.54 0.99 1.31 1.35 1.34 1.79 2.03 2.49 3.00 3.58 3.93 3.34 2.47 2.01 1.67 1.45 1.72 1.65 1.32 1.14 1.13 1.19 1.38 1.69 1.66 1.31 1.86 2.25 2.58 2.20 1.42 1.22 1.15 1.17 1.31 1.33 1.81 1.82 1.70 1.56 1.66 2.20 2.94 2.07 2.09 2.10 2.57 3.29 2.29 1.69 1.67 2.33 2.44 2.31 2.01 1.72 2.46 2.89 2.64 2.13 1.95 2.14 1.94 1.69 1.61 1.64 1.66 1.80 1.70 1.54
1.69 2.37 2.58 1.91 1.26 1.68 1.80 0.98 0.96 0.77 0.62 0.67 0.93 0.65 1.29 1.33 1.06 1.31 2.87 2.85 3.76 2.83 1.65 1.70 1.60 1.54 1.36 1.27 1.38 1.54 1.61 1.35 1.43 1.36 1.32 1.48 1.56 1.62 1.55 1.27 1.17 1.02 1.12 2.06 3.75 2.34 1.89 2.13 2.71 2.59 2.22 2.01 1.72 1.66 1.90 3.24 4.72 4.11 3.12 2.52 2.30 1.98 1.99 2.26 2.83 2.55 2.30 2.45 2.32 1.95 2.01 2.51 2.84 2.71 2.65 2.72 2.46 2.19 1.83 1.54 1.42 1.32 1.34 1.69 1.50
0.66 0.95 0.38 1.38 1.81 2.24 1.40 0.92 0.70 0.65 0.92 0.96 1.11 1.33 1.25 1.26 1.15 1.10 0.84 0.68 0.71 0.69 0.96 1.04 1.15 1.11 1.36 1.36 0.94 0.88 0.89 0.93 0.76 1.02 1.24 1.12 1.15 1.14 1.31 1.49 1.27 1.31 1.20 1.37 2.03 1.90 1.52 1.42 1.94 2.00 2.66 1.48 1.34 1.50 1.82 2.24 3.58 3.54 3.86 4.24 3.04 2.38 2.09 2.01 1.92 2.16 2.55 2.76 2.88 2.99 2.77 2.22 1.78 1.57 1.78 1.26 1.40 1.89 1.87 1.66 1.25 1.30 1.08 1.17 1.26
1.63 1.41 1.75 1.87 1.42 1.55 2.12 1.91 1.53 1.26 1.18 1.77 1.27 1.37 1.30 1.80 1.97 1.41 1.11 1.16 0.67 0.58 0.35 0.38 0.33 0.32 0.35 0.34 0.42 0.50 0.52 0.54 0.54 0.52 0.54 0.63 0.54 0.61 0.61 0.67 0.81 1.01 1.20 1.51 1.95 2.11 2.11 3.96 3.69 2.90 1.28 1.56 1.57 1.35 1.21 1.20 1.51 3.22 2.76 3.34 2.81 1.93 1.56 1.56 1.83 1.65 1.78 1.68 1.59 1.37 1.19 1.11 1.09 0.92 1.01 1.07 1.22 1.51 1.75 1.15 1.09 1.09 1.06 1.07 1.32
1.37 1.69 1.36 0.99 0.91 1.62 1.93 2.20 2.32 3.22 3.64 3.25 2.66 2.68 2.34 2.46 2.18 1.47 0.61 0.31 0.35 0.31 0.36 0.48 0.55 0.54 0.49 0.44 0.41 0.42 0.44 0.51 0.61 0.74 0.68 0.72 0.59 0.50 0.45 0.55 0.62 0.63 0.89 1.28 2.28 3.21 4.16 2.50 1.25 1.13 1.19 1.15 1.17 1.15 1.05 1.15 1.24 1.96 2.45 2.06 1.89 1.73 1.62 1.44 1.15 1.89 2.40 1.56 1.21 1.18 1.07 1.14 1.20 1.20 1.28 1.18 1.19 1.18 1.16 1.08 1.11 1.11 1.21 1.57 2.47
0.69 0.94 1.37 1.57 1.40 1.02 1.09 0.94 0.81 0.88 1.00 0.79 1.64 2.22 1.77 1.36 1.71 1.11 0.91 1.06 0.97 1.22 1.14 0.96 0.72 0.58 0.56 0.49 0.55 0.76 0.68 0.75 0.86 0.64 0.85 0.94 0.86 0.86 1.09 1.24 1.47 0.93 0.85 0.82 0.87 1.83 1.90 0.95 1.03 1.53 0.84 0.88 0.78 0.73 0.76 0.79 0.93 1.22 1.96 2.01 1.84 1.81 1.79 1.68 1.47 1.44 1.82 1.13 1.00 1.04 1.16 1.46 1.50 1.34 1.11 1.06 0.97 1.10 1.16 0.95 0.91 1.17 1.48 1.60 1.50
1.86 1.77 1.87 2.29 2.27 2.19 1.94 2.30 2.03 1.49 1.29 1.36 1.51 1.27 1.17 1.54 1.95 1.83 2.02 2.20 2.09 2.24 2.48 2.09 2.03 2.46 2.80 1.68 1.25 1.03 0.93 0.59 0.54 0.58 0.55 0.54 0.45 0.65 0.84 0.95 0.89 1.07 1.24 1.39 1.86 1.20 1.30 1.75 1.86 1.57 2.08 1.65 0.86 0.56 0.79 0.81 1.09 0.88 0.94 0.74 0.88 1.09 1.20 0.98 0.93 0.89 0.88 0.96 0.93 0.94 1.18 0.98 0.79 0.83 0.82 0.92 0.91 0.84 0.90 1.25 1.42 1.30 0.86 0.85 1.07
1.74 1.22 1.16 1.41 1.64 1.58 1.29 1.16 0.95 1.69 1.47 1.17 1.43 1.24 1.44 1.32 0.98 0.94 1.72 1.14 1.17 1.32 1.10 0.78 1.17 1.30 0.51 0.59 0.47 0.68 0.75 0.69 0.72 0.55 0.55 0.43 0.43 0.39 0.90 1.18 1.24 1.13 0.85 0.81 0.78 1.07 1.37 1.55 1.31 1.02 0.53 0.72 0.59 0.48 0.53 0.41 0.26 0.26 0.28 0.41 0.63 0.75 0.79 1.14 0.80 0.73 0.58 0.90 0.67 0.54 0.55 0.65 0.71 0.71 0.69 0.69 0.77 0.83 0.78 1.09 1.41 1.41 1.37 1.30 1.30
0.89 1.08 1.09 0.93 0.96 1.21 1.46 1.30 1.14 1.17 1.91 2.07 2.06 2.31 2.03 1.67 1.50 1.39 1.47 1.74 1.41 1.47 1.07 1.38 1.40 1.62 1.28 1.14 0.94 0.88 1.13 1.13 1.36 1.50 1.45 1.31 1.09 1.21 1.05 0.81 0.54 0.41 0.45 0.46 0.75 0.50 0.49 0.60 0.79 0.95 1.03 0.60 0.40 0.29 0.22 0.20 0.27 0.22 0.40 0.42 0.26 0.22 0.23 0.22 0.23 0.29 0.34 0.45 0.38 0.38 0.35 0.42 0.42 0.39 0.44 0.52 0.60 0.67 0.57 0.59 0.86 0.66 0.55 0.71 0.54
0.48 0.49 0.83 1.19 1.25 1.29 1.05 1.61 1.81 1.81 1.49 2.05 1.66 0.86 0.91 1.44 1.78 1.58 1.60 1.18 1.41 1.64 1.43 1.27 1.05 1.14 1.18 1.19 1.52 1.16 1.06 1.11 1.01 0.78 0.90 1.20 0.89 0.90 0.70 0.60 0.48 0.48 0.56 0.56 0.46 0.36 0.30 0.36 0.39 0.33 0.37 0.41 0.37 0.53 0.43 0.53 0.42 0.41 0.44 0.34 0.36 0.31 0.32 0.33 0.33 0.29 0.30 0.37 0.60 0.46 0.64 1.03 1.69 1.98 2.05 1.90 1.85 1.81 1.34 1.19 0.90 0.84 0.72 0.50 0.35